Weather reports worldwide

Advertisment
Wainfleet, United Kingdom (3392): temperature & dewpoint: 12.10.2018 02:00:00 - 18.10.2018 02:00:00 (BST)Wainfleet, United Kingdom (3392): temperature -20cm & temperature -100cm: 12.10.2018 02:00:00 - 18.10.2018 02:00:00 (BST)Wainfleet, United Kingdom (3392): wind speed & gusts: 12.10.2018 02:00:00 - 18.10.2018 02:00:00 (BST)Wainfleet, United Kingdom (3392): wind direction: 12.10.2018 02:00:00 - 18.10.2018 02:00:00 (BST)Wainfleet, United Kingdom (3392): reduced air pressure: 12.10.2018 02:00:00 - 18.10.2018 02:00:00 (BST)Wainfleet, United Kingdom (3392): visibility: 12.10.2018 02:00:00 - 18.10.2018 02:00:00 (BST)Wainfleet, United Kingdom (3392): precipitation: 12.10.2018 02:00:00 - 18.10.2018 02:00:00 (BST)
Date & Time tt [°C] td [°C] tt -20cm [°C] tt -100cm [°C] ff [km/h] ff [kn] fx [km/h] fx [kn] dd ppp [hPa] vv [km] rr [mm]
18.10.2018 02:00:00 8,6 8,4 - - 9 5 - - N 1025,9 13 0,0
18.10.2018 01:00:00 9,2 9,0 - - 9 5 - - NNW 1025,8 11 0,0
18.10.2018 00:00:00 7,8 7,4 - - 9 5 - - NNW 1025,2 5 0,0
17.10.2018 23:00:00 8,6 8,1 - - 8 4 - - NW 1024,6 7 0,0
17.10.2018 22:00:00 9,5 8,9 - - 9 5 - - NNW 1024,1 7 0,0
17.10.2018 21:00:00 10,7 10,2 - - 9 5 - - NNW 1023,5 4,4 0,0
17.10.2018 20:00:00 11,2 10,5 - - 4 2 - - NNE 1022,9 6 0,0
17.10.2018 19:00:00 12,2 11,1 - - 2 1 - - NNE 1022,1 7 0,0
17.10.2018 18:00:00 13,4 12,0 - - 2 1 - - ENE 1021,4 12 0,0
17.10.2018 17:00:00 14,2 11,8 - - 8 4 - - E 1020,6 15 0,0
17.10.2018 16:00:00 15,0 12,2 - - 11 6 - - E 1020,1 16 0,0
17.10.2018 15:00:00 17,2 12,0 - - 8 4 - - NW 1019,6 24 0,0
17.10.2018 14:00:00 16,7 12,3 - - 8 4 - - NW 1019,3 21 0,0
17.10.2018 13:00:00 15,7 12,5 - - 5 3 - - WNW 1019,1 16 0,0
17.10.2018 12:00:00 14,5 12,7 - - 8 4 - - WNW 1018,8 14 0,0
17.10.2018 11:00:00 14,0 12,4 - - 15 8 - - WNW 1018,4 14 0,0
17.10.2018 10:00:00 12,9 12,2 13,7 13,7 11 6 - - WSW 1018,0 12 0,0
17.10.2018 09:00:00 11,9 11,5 - - 13 7 - - SW 1017,4 11 0,0
17.10.2018 08:00:00 11,6 11,2 - - 13 7 - - SW 1016,9 10 0,0
17.10.2018 07:00:00 11,5 11,1 - - 13 7 - - SW 1016,3 9 0,0
17.10.2018 06:00:00 11,6 11,1 - - 16 9 - - SW 1015,9 11 0,0
17.10.2018 05:00:00 11,6 10,9 - - 16 9 - - SW 1015,5 11 0,0
17.10.2018 04:00:00 11,6 11,0 - - 16 9 - - SW 1015,2 10 0,0
17.10.2018 03:00:00 11,5 10,9 - - 18 10 - - SSW 1015,3 9 0,0
17.10.2018 02:00:00 11,9 11,4 - - 16 9 - - SW 1015,4 10 0,0
17.10.2018 01:00:00 12,5 11,7 - - 18 10 - - SW 1015,2 10 0,0
17.10.2018 00:00:00 13,5 12,6 - - 21 11 - - SSW 1015,0 10 0,0
16.10.2018 23:00:00 14,5 13,8 - - 21 11 - - SSW 1015,2 5 0,0
16.10.2018 22:00:00 14,5 13,8 - - 15 8 - - SSW 1015,2 4,0 0,0
16.10.2018 21:00:00 14,5 13,8 - - 15 8 - - SSW 1014,7 3,8 0,0
16.10.2018 20:00:00 14,8 14,2 - - 16 9 - - S 1014,8 5 0,0
16.10.2018 19:00:00 14,7 14,0 - - 11 6 - - SSW 1014,7 5 0,0
16.10.2018 18:00:00 15,1 14,0 - - 13 7 - - WSW 1014,5 6 0,0
16.10.2018 17:00:00 15,3 14,0 - - 15 8 - - WSW 1014,4 7 0,0
16.10.2018 16:00:00 15,4 14,2 - - 15 8 - - WSW 1014,8 6 0,0
16.10.2018 15:00:00 15,2 14,4 - - 18 10 - - SSW 1014,7 4,7 0,0
16.10.2018 14:00:00 15,1 14,4 - - 18 10 - - SW 1014,8 4,8 0,0
16.10.2018 13:00:00 15,0 14,5 - - 15 8 - - SW 1014,8 4,8 0,0
16.10.2018 12:00:00 14,5 14,3 - - 18 10 - - SSW 1015,0 5 0,0
16.10.2018 11:00:00 13,6 13,5 - - 15 8 - - SSE 1014,9 6 0,0
16.10.2018 10:00:00 13,2 13,1 13,5 13,7 11 6 - - S 1015,4 5 0,0
16.10.2018 09:00:00 12,6 12,6 - - 11 6 - - S 1015,7 3,4 0,0
16.10.2018 08:00:00 11,9 11,9 - - 8 4 - - SSW 1015,5 3,7 0,0
16.10.2018 07:00:00 11,9 11,9 - - 9 5 - - SSW 1015,2 7 0,0
16.10.2018 06:00:00 12,0 11,9 - - 9 5 - - SSW 1015,0 0,4 0,0
16.10.2018 05:00:00 11,8 11,7 - - 8 4 - - SW 1014,9 0,4 0,0
16.10.2018 04:00:00 11,9 11,8 - - 13 7 - - SSW 1014,9 0,5 0,0
16.10.2018 03:00:00 12,7 12,6 - - 13 7 - - SE 1014,8 14 0,0
16.10.2018 02:00:00 12,8 12,6 - - 13 7 - - ESE 1015,2 7 0,0
16.10.2018 01:00:00 12,5 12,3 - - 9 5 - - ESE 1015,4 6 0,2
16.10.2018 00:00:00 12,3 12,0 - - 11 6 - - E 1015,5 7 0,0
15.10.2018 23:00:00 12,0 11,6 - - 15 8 - - ENE 1015,5 4,9 0,0
15.10.2018 22:00:00 12,0 11,2 - - 11 6 - - NE 1015,6 22 0,0
15.10.2018 21:00:00 12,0 11,3 - - 16 9 - - NE 1015,0 28 0,0
15.10.2018 20:00:00 11,7 10,8 - - 22 12 - - NE 1014,7 18 0,0
15.10.2018 19:00:00 11,8 10,7 - - 21 11 - - NE 1014,8 28 0,0
15.10.2018 18:00:00 11,6 10,3 - - 22 12 - - NE 1014,6 15 0,0
15.10.2018 17:00:00 11,4 10,6 - - 28 15 - - NE 1014,1 7 0,0
15.10.2018 16:00:00 12,0 10,6 - - 29 16 46 25 NE 1013,4 27 0,0
15.10.2018 15:00:00 11,9 10,6 - - 28 15 - - NNE 1013,3 30 0,0
15.10.2018 14:00:00 11,9 10,8 - - 29 16 48 26 NNE 1013,1 30 0,0
15.10.2018 13:00:00 11,8 11,1 - - 31 17 48 26 NNE 1012,5 14 0,8
15.10.2018 12:00:00 11,3 10,7 - - 34 18 50 27 NNE 1012,7 8 0,6
15.10.2018 11:00:00 11,2 10,7 - - 31 17 46 25 NNE 1012,4 5 1,0
15.10.2018 10:00:00 11,2 10,8 13,9 13,7 34 18 46 25 NNE 1012,0 4,3 2,4
15.10.2018 09:00:00 11,3 10,9 - - 31 17 - - NNE 1011,5 7 1,8
15.10.2018 08:00:00 11,4 11,0 - - 28 15 - - NNE 1010,9 4,2 0,2
15.10.2018 07:00:00 11,6 10,9 - - 26 14 - - NE 1010,4 6 0,0
15.10.2018 06:00:00 11,4 10,9 - - 26 14 - - NNE 1010,3 12 0,2
15.10.2018 05:00:00 11,1 10,4 - - 22 12 - - NNE 1010,6 8 0,0
15.10.2018 04:00:00 11,1 10,2 - - 26 14 - - NNE 1010,3 17 0,4
15.10.2018 03:00:00 11,0 10,2 - - 22 12 - - NE 1010,7 7 2,0
15.10.2018 02:00:00 11,1 9,9 - - 21 11 - - NE 1010,7 7 0,2
15.10.2018 01:00:00 11,3 9,8 - - 22 12 - - NNE 1010,4 30 0,0
15.10.2018 00:00:00 11,2 9,7 - - 24 13 - - NNE 1010,3 30 0,0
14.10.2018 23:00:00 11,1 9,3 - - 22 12 - - NNE 1010,6 30 0,0
14.10.2018 22:00:00 10,6 9,4 - - 22 12 - - NNE 1010,6 30 0,0
14.10.2018 21:00:00 9,8 9,1 - - 22 12 - - NNE 1010,6 15 0,4
14.10.2018 20:00:00 9,6 8,7 - - 24 13 - - N 1010,3 6 0,4
14.10.2018 19:00:00 9,4 8,5 - - 28 15 - - N 1009,7 15 0,2
14.10.2018 18:00:00 9,5 8,9 - - 26 14 - - N 1008,9 16 0,4
14.10.2018 17:00:00 9,5 8,6 - - 24 13 - - N 1008,4 35 0,2
14.10.2018 16:00:00 9,4 8,6 - - 28 15 - - N 1007,8 9 1,0
14.10.2018 15:00:00 10,3 9,4 - - 31 17 48 26 NNW 1007,2 25 0,4
14.10.2018 14:00:00 11,0 10,5 - - 24 13 - - N 1006,5 22 1,0
14.10.2018 13:00:00 10,9 10,2 - - 31 17 - - N 1006,8 4,0 1,4
14.10.2018 12:00:00 11,6 11,1 - - 22 12 - - N 1006,9 7 3,6
14.10.2018 11:00:00 12,3 11,7 - - 15 8 - - NNW 1006,5 2,9 2,8
14.10.2018 10:00:00 13,3 12,7 14,4 13,7 16 9 - - N 1005,5 11 2,0
14.10.2018 09:00:00 13,6 12,6 - - 8 4 - - W 1005,9 4,3 1,8
14.10.2018 08:00:00 14,1 12,3 - - 9 5 - - W 1005,6 11 0,0
14.10.2018 07:00:00 14,1 12,0 - - 8 4 - - SW 1005,9 30 0,0
14.10.2018 06:00:00 14,2 12,2 - - 11 6 - - SW 1005,6 35 0,0
14.10.2018 05:00:00 15,7 13,1 - - 16 9 - - WSW 1005,4 45 0,0
14.10.2018 04:00:00 16,3 13,8 - - 21 11 - - SSW 1005,3 45 0,0
14.10.2018 03:00:00 16,2 14,6 - - 21 11 - - SSW 1005,3 21 0,0
14.10.2018 02:00:00 17,1 14,8 - - 28 15 - - S 1005,1 29 0,0
14.10.2018 01:00:00 17,4 14,9 - - 29 16 - - S 1004,7 24 0,0
14.10.2018 00:00:00 17,4 15,0 - - 26 14 - - S 1005,1 22 0,0
13.10.2018 23:00:00 17,6 14,6 - - 28 15 - - S 1005,5 27 0,0
13.10.2018 22:00:00 18,0 14,5 - - 28 15 - - S 1005,6 26 0,0
13.10.2018 21:00:00 18,9 14,5 - - 34 18 46 25 S 1005,8 30 0,0
13.10.2018 20:00:00 19,5 14,6 - - 34 18 48 26 S 1005,6 30 0,0
13.10.2018 19:00:00 20,0 14,7 - - 39 21 52 28 S 1005,1 30 0,0
13.10.2018 18:00:00 20,5 14,7 - - 35 19 57 31 S 1004,7 30 0,0
13.10.2018 17:00:00 22,1 15,0 - - 42 23 54 29 SSW 1004,6 30 0,0
13.10.2018 16:00:00 22,4 14,7 - - 37 20 52 28 S 1004,6 30 0,0
13.10.2018 15:00:00 22,9 14,6 - - 35 19 55 30 S 1005,2 35 0,0
13.10.2018 14:00:00 22,4 15,7 - - 35 19 57 31 S 1006,0 30 0,0
13.10.2018 13:00:00 21,4 15,7 - - 42 23 57 31 S 1007,2 30 0,0
13.10.2018 12:00:00 18,5 15,2 - - 37 20 70 38 S 1008,2 30 0,0
13.10.2018 11:00:00 19,5 14,6 - - 52 28 70 38 S 1008,3 27 0,0
13.10.2018 10:00:00 18,4 13,7 14,0 13,7 37 20 54 29 S 1008,3 30 0,0
13.10.2018 09:00:00 18,0 13,7 - - 37 20 48 26 S 1008,0 35 0,0
13.10.2018 08:00:00 17,1 14,2 - - 28 15 - - S 1007,9 30 0,0
13.10.2018 07:00:00 17,1 14,5 - - 31 17 48 26 S 1008,0 30 0,0
13.10.2018 06:00:00 17,5 14,8 - - 37 20 48 26 S 1007,9 30 0,0
13.10.2018 05:00:00 17,3 14,6 - - 35 19 46 25 S 1008,3 28 0,0
13.10.2018 04:00:00 17,7 14,6 - - 35 19 - - S 1008,3 28 0,0
13.10.2018 03:00:00 17,6 14,5 - - 35 19 59 32 S 1008,6 35 0,0
13.10.2018 02:00:00 18,1 14,5 - - 39 21 54 29 S 1008,3 35 0,0
13.10.2018 01:00:00 18,6 14,2 - - 41 22 55 30 SSW 1008,6 35 0,0
13.10.2018 00:00:00 18,6 14,2 - - 41 22 61 33 SSW 1008,5 30 0,0
12.10.2018 23:00:00 18,5 14,1 - - 44 24 67 36 S 1008,2 29 0,0
12.10.2018 22:00:00 19,0 13,8 - - 52 28 65 35 SSW 1008,0 25 0,0
12.10.2018 21:00:00 18,6 14,0 - - 54 29 70 38 S 1007,0 28 0,0
12.10.2018 20:00:00 18,9 13,9 - - 52 28 67 36 S 1007,2 28 0,0
12.10.2018 19:00:00 18,8 13,8 - - 48 26 78 42 S 1006,5 30 0,0
12.10.2018 18:00:00 19,2 13,6 - - 50 27 68 37 S 1006,4 28 0,0
12.10.2018 17:00:00 19,9 13,1 - - 54 29 68 37 S 1005,4 30 0,0
12.10.2018 16:00:00 20,3 13,0 - - 52 28 78 42 S 1005,6 29 0,0
12.10.2018 15:00:00 19,4 12,7 - - 52 28 67 36 S 1006,0 26 0,0
12.10.2018 14:00:00 17,8 13,6 - - 46 25 59 32 S 1006,6 17 0,0
12.10.2018 13:00:00 17,5 13,0 - - 41 22 65 35 S 1007,1 30 0,0
12.10.2018 12:00:00 16,8 13,1 - - 46 25 65 35 S 1007,6 18 0,0
12.10.2018 11:00:00 16,1 12,6 - - 37 20 50 27 S 1007,7 23 0,0
12.10.2018 10:00:00 15,3 12,5 13,7 13,5 39 21 55 30 S 1006,8 20 0,0
12.10.2018 09:00:00 14,8 12,2 - - 39 21 55 30 S 1007,0 23 0,0
12.10.2018 08:00:00 14,3 12,1 - - 35 19 46 25 S 1006,9 20 0,0
12.10.2018 07:00:00 14,0 11,9 - - 35 19 48 26 S 1006,7 21 0,0
12.10.2018 06:00:00 13,8 12,0 - - 37 20 48 26 S 1006,3 23 0,0
12.10.2018 05:00:00 13,4 11,9 - - 29 16 46 25 S 1006,4 23 0,0
12.10.2018 04:00:00 13,4 12,1 - - 34 18 - - S 1006,5 22 0,0
12.10.2018 03:00:00 13,0 11,9 - - 28 15 - - S 1006,6 23 0,0
12.10.2018 02:00:00 12,8 11,5 - - 22 12 - - S 1006,7 25 0,0

tt = temperature
td = dewpoint
tt -20cm = temperature -20cm
tt -100cm = temperature -100cm
ff = wind speed
fx = gusts
dd = wind direction
ppp = reduced air pressure
vv = visibility
rr = precipitation

Next stations